CW4221 Weather Reports


Display with metric or nautical units.
time (UTC)temp
F
wind
direction
speed
MPH
gust
MPH
rain 1hr
in
rain 24hr
in
rain mn
in
humidity
%
barometer
mb
20260903200339 96 223 3.0 6.0 0.00 0.00 0.00 44 1014.8
20260903195813 96 173 2.0 10.0 0.00 0.00 0.00 44 1014.9
20260903195309 96 92 3.0 9.0 0.00 0.00 0.00 45 1015.0
20260903194846 96 98 3.0 10.0 0.00 0.00 0.00 45 1014.9
20260903194325 96 123 5.0 10.0 0.00 0.00 0.00 44 1015.0
20260903193822 95 147 3.0 10.0 0.00 0.00 0.00 44 1015.0
20260903193317 95 53 4.0 10.0 0.00 0.00 0.00 44 1015.1
20260903192814 95 151 2.0 8.0 0.00 0.00 0.00 43 1015.2
20260903192309 95 241 4.0 8.0 0.00 0.00 0.00 46 1015.2
20260903191825 96 212 2.0 12.0 0.00 0.00 0.00 43 1015.3
20260903191320 96 130 3.0 12.0 0.00 0.00 0.00 44 1015.4
20260903190818 95 223 5.0 9.0 0.00 0.00 0.00 44 1015.4
20260903190318 95 259 5.0 10.0 0.00 0.00 0.00 44 1015.6
20260903185812 96 232 5.0 9.0 0.00 0.00 0.00 45 1015.6
20260903185348 95 223 3.0 7.0 0.00 0.00 0.00 46 1015.6
20260903184822 94 146 3.0 8.0 0.00 0.00 0.00 46 1015.7
20260903184318 95 159 4.0 8.0 0.00 0.00 0.00 48 1015.8
20260903183814 94 129 3.0 8.0 0.00 0.00 0.00 47 1015.9
20260903183331 93 284 5.0 9.0 0.00 0.00 0.00 47 1016.0
20260903182826 94 216 3.0 6.0 0.00 0.00 0.00 47 1016.0
20260903182326 94 73 4.0 8.0 0.00 0.00 0.00 48 1016.0
20260903181844 94 221 3.0 7.0 0.00 0.00 0.00 47 1016.1
20260903181320 93 132 4.0 7.0 0.00 0.00 0.00 47 1016.2
20260903180816 93 231 4.0 7.0 0.00 0.00 0.00 48 1016.3
20260903180314 93 107 3.0 8.0 0.00 0.00 0.00 48 1016.3
20260903175829 93 217 3.0 9.0 0.00 0.00 0.00 47 1016.3
20260903175325 93 173 4.0 13.0 0.00 0.00 0.00 49 1016.4
20260903174821 93 215 4.0 13.0 0.00 0.00 0.00 49 1016.5
20260903174341 93 252 5.0 10.0 0.00 0.00 0.00 48 1016.6
20260903173836 93 146 6.0 10.0 0.00 0.00 0.00 48 1016.8
20260903173310 93 130 4.0 10.0 0.00 0.00 0.00 48 1016.7
20260903172826 92 202 4.0 9.0 0.00 0.00 0.00 48 1016.8
20260903172322 92 196 3.0 9.0 0.00 0.00 0.00 51 1016.8
20260903171817 92 225 5.0 9.0 0.00 0.00 0.00 50 1016.9
20260903171333 91 145 3.0 8.0 0.00 0.00 0.00 49 1016.9
20260903170849 91 219 5.0 11.0 0.00 0.00 0.00 49 1017.0
20260903170325 91 142 5.0 14.0 0.00 0.00 0.00 53 1017.0
20260903165840 91 183 4.0 14.0 0.00 0.00 0.00 53 1017.1
20260903165335 91 200 4.0 9.0 0.00 0.00 0.00 54 1017.1
20260903164814 91 218 5.0 9.0 0.00 0.00 0.00 53 1017.1
20260903164310 90 209 4.0 12.0 0.00 0.00 0.00 54 1017.1
20260903163825 90 229 6.0 12.0 0.00 0.00 0.00 54 1017.2
20260903163322 90 167 5.0 9.0 0.00 0.00 0.00 55 1017.2
20260903162818 89 198 3.0 9.0 0.00 0.00 0.00 56 1017.3
20260903162335 89 128 4.0 9.0 0.00 0.00 0.00 56 1017.3
20260903161810 89 221 4.0 11.0 0.00 0.00 0.00 55 1017.4
20260903161310 89 188 4.0 11.0 0.00 0.00 0.00 55 1017.4
20260903160824 89 235 4.0 10.0 0.00 0.00 0.00 57 1017.4
20260903160320 89 248 5.0 9.0 0.00 0.00 0.00 58 1017.4
20260903155815 88 211 3.0 9.0 0.00 0.00 0.00 57 1017.4
20260903155312 88 154 5.0 10.0 0.00 0.00 0.00 57 1017.6
20260903154809 88 254 5.0 12.0 0.00 0.00 0.00 57 1017.6
20260903154346 87 157 6.0 12.0 0.00 0.00 0.00 59 1017.6
20260903153841 88 221 4.0 10.0 0.00 0.00 0.00 59 1017.6
20260903153316 87 215 4.0 10.0 0.00 0.00 0.00 59 1017.6
20260903152816 87 138 4.0 11.0 0.00 0.00 0.00 59 1017.6
20260903152333 87 225 6.0 11.0 0.00 0.00 0.00 60 1017.6
20260903151848 87 207 4.0 10.0 0.00 0.00 0.00 60 1017.6
20260903151323 87 207 3.0 10.0 0.00 0.00 0.00 61 1017.6
20260903150819 86 193 5.0 15.0 0.00 0.00 0.00 62 1017.6
20260903150315 86 249 5.0 15.0 0.00 0.00 0.00 62 1017.6
20260903145809 86 224 5.0 10.0 0.00 0.00 0.00 62 1017.6
20260903145347 85 207 7.0 10.0 0.00 0.00 0.00 63 1017.6
20260903144822 85 217 4.0 8.0 0.00 0.00 0.00 64 1017.6
20260903144322 85 202 5.0 10.0 0.00 0.00 0.00 64 1017.6
20260903143839 85 240 4.0 10.0 0.00 0.00 0.00 64 1017.7
20260903143314 85 233 4.0 9.0 0.00 0.00 0.00 65 1017.8
20260903142850 84 212 4.0 9.0 0.00 0.00 0.00 66 1017.8
20260903142325 84 257 3.0 7.0 0.00 0.00 0.00 67 1017.8
20260903141822 84 239 4.0 7.0 0.00 0.00 0.00 68 1017.8
20260903141319 83 246 4.0 8.0 0.00 0.00 0.00 68 1017.8
20260903140815 83 210 4.0 8.0 0.00 0.00 0.00 69 1017.8
20260903140315 83 137 2.0 5.0 0.00 0.00 0.00 70 1017.9
20260903135831 82 174 3.0 5.0 0.00 0.00 0.00 71 1017.9
20260903135327 82 225 2.0 5.0 0.00 0.00 0.00 72 1018.0
20260903134823 82 249 2.0 5.0 0.00 0.00 0.00 72 1018.0
20260903134319 81 215 2.0 7.0 0.00 0.00 0.00 73 1018.0
20260903133815 81 246 3.0 7.0 0.00 0.00 0.00 73 1018.0
20260903133311 80 210 2.0 6.0 0.00 0.00 0.00 74 1018.0
20260903132848 80 226 2.0 6.0 0.00 0.00 0.00 75 1018.0
20260903132343 79 205 2.0 5.0 0.00 0.00 0.00 75 1018.0
20260903131822 79 205 1.0 4.0 0.00 0.00 0.00 75 1018.1
20260903131317 79 206 1.0 4.0 0.00 0.00 0.00 77 1018.0
20260903130813 78 208 1.0 3.0 0.00 0.00 0.00 77 1017.9
20260903130330 78 159 1.0 3.0 0.00 0.00 0.00 77 1018.0
20260903125822 77 138 1.0 5.0 0.00 0.00 0.00 78 1017.8
20260903125318 77 247 1.0 2.0 0.00 0.00 0.00 79 1017.7
20260903124835 77 162 1.0 2.0 0.00 0.00 0.00 79 1017.7
20260903124315 76 184 1.0 2.0 0.00 0.00 0.00 80 1017.7
20260903123810 76 146 1.0 2.0 0.00 0.00 0.00 81 1017.7
20260903123327 75 228 0.0 2.0 0.00 0.00 0.00 81 1017.7
20260903122824 75 232 0.0 2.0 0.00 0.00 0.00 82 1017.7
20260903122320 75 232 0.0 2.0 0.00 0.00 0.00 82 1017.8
20260903121817 75 232 0.0 2.0 0.00 0.00 0.00 82 1017.7
20260903121314 74 232 0.0 2.0 0.00 0.00 0.00 82 1017.7
20260903120830 74 153 0.0 0.0 0.00 0.00 0.00 82 1017.7
20260903120310 74 153 0.0 2.0 0.00 0.00 0.00 82 1017.7
20260903115846 74 153 0.0 2.0 0.00 0.00 0.00 82 1017.6
20260903115322 74 208 0.0 2.0 0.00 0.00 0.00 82 1017.7
20260903114838 74 208 0.0 2.0 0.00 0.00 0.00 82 1017.6
20260903114313 74 208 0.0 2.0 0.00 0.00 0.00 81 1017.6
20260903113828 75 208 0.0 0.0 0.00 0.00 0.00 81 1017.5
20260903113325 75 208 0.0 2.0 0.00 0.00 0.00 81 1017.5
20260903112842 75 208 0.0 2.0 0.00 0.00 0.00 81 1017.5
20260903112317 75 208 0.0 2.0 0.00 0.00 0.00 80 1017.5
20260903111818 75 208 0.0 2.0 0.00 0.00 0.00 80 1017.5
20260903111314 75 208 0.0 2.0 0.00 0.00 0.00 80 1017.4
20260903110810 76 208 0.0 2.0 0.00 0.00 0.00 79 1017.4
20260903110327 76 208 0.0 2.0 0.00 0.00 0.00 79 1017.4
20260903105824 76 190 0.0 2.0 0.00 0.00 0.00 79 1017.4
20260903105321 76 217 0.0 2.0 0.00 0.00 0.00 78 1017.3
20260903104818 76 210 1.0 2.0 0.00 0.00 0.00 78 1017.2
20260903104318 77 225 0.0 2.0 0.00 0.00 0.00 78 1017.1
20260903103815 77 185 0.0 3.0 0.00 0.00 0.00 77 1017.1
20260903103312 77 222 1.0 3.0 0.00 0.00 0.00 78 1017.1
20260903102829 76 209 1.0 2.0 0.00 0.00 0.00 78 1017.1
20260903102345 76 202 0.0 3.0 0.00 0.00 0.00 78 1017.1
20260903101819 76 234 1.0 3.0 0.00 0.00 0.00 78 1017.1
20260903101335 76 207 1.0 3.0 0.00 0.00 0.00 78 1017.1
20260903100810 76 211 1.0 3.0 0.00 0.00 0.00 78 1017.1
20260903100328 76 144 0.0 2.0 0.00 0.00 0.00 78 1017.2
20260903095824 76 144 0.0 2.0 0.00 0.00 0.00 78 1017.1
20260903095321 76 144 0.0 2.0 0.00 0.00 0.00 78 1017.1
20260903094817 76 119 0.0 2.0 0.00 0.00 0.00 78 1017.1
20260903094312 76 113 0.0 2.0 0.00 0.00 0.00 78 1017.0
20260903093828 77 175 0.0 4.0 0.00 0.00 0.00 77 1017.0
20260903093324 77 175 1.0 4.0 0.00 0.00 0.00 77 1017.0
20260903092820 77 144 0.0 2.0 0.00 0.00 0.00 77 1016.9
20260903092321 77 193 0.0 2.0 0.00 0.00 0.00 77 1017.0
20260903091817 77 193 0.0 2.0 0.00 0.00 0.00 77 1016.9
20260903091313 77 187 0.0 2.0 0.00 0.00 0.00 77 1016.9
20260903090849 77 99 0.0 2.0 0.00 0.00 0.00 77 1016.9
20260903090324 77 237 0.0 2.0 0.00 0.00 0.00 76 1016.9
20260903085840 77 158 0.0 2.0 0.00 0.00 0.00 76 1016.9
20260903085335 77 191 0.0 2.0 0.00 0.00 0.00 76 1016.9
20260903084850 77 148 0.0 2.0 0.00 0.00 0.00 76 1016.9
20260903084325 77 181 1.0 4.0 0.00 0.00 0.00 76 1016.9
20260903083841 77 204 1.0 4.0 0.00 0.00 0.00 75 1016.8
20260903083321 77 132 0.0 2.0 0.00 0.00 0.00 75 1016.8
20260903082818 77 156 1.0 3.0 0.00 0.00 0.00 75 1016.8
20260903082314 77 181 1.0 3.0 0.00 0.00 0.00 75 1016.8
20260903081810 77 204 0.0 2.0 0.00 0.00 0.00 75 1016.8
20260903081327 78 129 0.0 2.0 0.00 0.00 0.00 75 1016.8
20260903080823 78 198 0.0 2.0 0.00 0.00 0.00 74 1016.8
20260903080319 78 146 0.0 2.0 0.00 0.00 0.00 74 1016.8
20260903075818 78 196 1.0 2.0 0.00 0.00 0.00 74 1016.8
20260903075314 78 177 0.0 2.0 0.00 0.00 0.00 74 1016.8
20260903074811 78 177 0.0 2.0 0.00 0.00 0.00 74 1016.7
20260903074327 78 177 0.0 2.0 0.00 0.00 0.00 73 1016.8
20260903073822 78 177 0.0 3.0 0.00 0.00 0.00 73 1016.8
20260903073319 78 244 1.0 3.0 0.00 0.00 0.00 73 1016.7
20260903072835 78 212 1.0 2.0 0.00 0.00 0.00 73 1016.8
20260903072310 78 180 0.0 2.0 0.00 0.00 0.00 73 1016.8
20260903071824 78 140 0.0 2.0 0.00 0.00 0.00 73 1016.8
20260903071324 78 235 0.0 2.0 0.00 0.00 0.00 72 1016.8
20260903070820 78 157 0.0 2.0 0.00 0.00 0.00 72 1016.8
20260903070315 79 202 0.0 2.0 0.00 0.00 0.00 72 1016.8
20260903065810 79 180 0.0 2.0 0.00 0.00 0.00 71 1016.9
20260903065347 79 180 1.0 2.0 0.00 0.00 0.00 71 1016.8
20260903064842 79 209 1.0 2.0 0.00 0.00 0.00 71 1016.8
20260903064317 79 120 1.0 2.0 0.00 0.00 0.00 71 1016.8
20260903063813 79 152 0.0 2.0 0.00 0.00 0.00 71 1016.9
20260903063329 79 106 0.0 2.0 0.00 0.00 0.00 70 1016.8
20260903062829 79 182 0.0 2.0 0.00 0.00 0.00 70 1016.8
20260903062326 79 182 0.0 2.0 0.00 0.00 0.00 70 1016.8
20260903061819 79 128 0.0 2.0 0.00 0.00 0.00 70 1016.7
20260903061337 79 79 0.0 3.0 0.00 0.00 0.00 69 1016.8
20260903060811 80 203 1.0 3.0 0.00 0.00 0.00 69 1016.8
20260903060348 80 143 0.0 2.0 0.00 0.00 0.00 69 1016.9
20260903055823 80 233 1.0 2.0 0.00 0.00 0.00 68 1016.9
20260903055318 80 185 1.0 3.0 0.00 0.00 0.00 68 1016.8
20260903054819 80 180 1.0 3.0 0.00 0.00 0.00 68 1016.8
20260903054314 80 140 0.0 2.0 0.00 0.00 0.00 68 1016.8
20260903053811 80 180 0.0 2.0 0.00 0.00 0.00 68 1016.8
20260903053327 80 159 0.0 3.0 0.00 0.00 0.00 68 1016.8
20260903052823 80 212 1.0 4.0 0.00 0.00 0.00 68 1016.8
20260903052339 80 163 1.0 4.0 0.00 0.00 0.00 67 1016.8
20260903051834 80 202 0.0 2.0 0.00 0.00 0.00 67 1016.7
20260903051309 80 202 1.0 2.0 0.00 0.00 0.00 67 1016.7
20260903050847 80 190 0.0 2.0 0.00 0.00 0.00 67 1016.7
20260903050325 80 161 0.0 2.0 0.00 0.00 0.00 67 1016.6
20260903045818 80 198 1.0 3.0 0.00 0.00 0.00 67 1016.6
20260903045313 80 205 0.0 3.0 0.00 0.00 0.00 67 1016.5
20260903044811 80 123 0.0 2.0 0.00 0.00 0.00 67 1016.7
20260903044325 80 123 1.0 2.0 0.00 0.00 0.00 67 1016.6
20260903043821 80 123 0.0 2.0 0.00 0.00 0.00 67 1016.6
20260903043339 80 148 0.0 2.0 0.00 0.00 0.00 67 1016.7
20260903042814 81 148 0.0 2.0 0.00 0.00 0.00 66 1016.6
20260903042310 81 167 0.0 2.0 0.00 0.00 0.00 65 1016.5
20260903041809 81 171 0.0 2.0 0.00 0.00 0.00 65 1016.6
20260903041325 81 171 0.0 2.0 0.00 0.00 0.00 64 1016.6
20260903040821 82 229 0.0 3.0 0.00 0.00 0.00 63 1016.6
20260903040317 82 161 1.0 3.0 0.00 0.00 0.00 63 1016.5
20260903035812 82 214 0.0 2.0 0.00 0.00 0.00 63 1016.6
20260903035309 82 234 0.0 2.0 0.00 0.00 0.00 62 1016.6
20260903034846 82 163 0.0 3.0 0.00 0.00 0.00 62 1016.6
20260903034320 82 213 1.0 3.0 0.00 0.00 0.00 62 1016.6
20260903033820 82 215 1.0 4.0 0.00 0.00 0.00 62 1016.6
20260903033316 82 229 1.0 4.0 0.00 0.00 0.00 62 1016.5
20260903032812 82 223 1.0 2.0 0.00 0.00 0.00 62 1016.5
20260903032328 82 191 1.0 2.0 0.00 0.00 0.00 62 1016.4
20260903031824 82 144 1.0 4.0 0.00 0.00 0.00 62 1016.4
20260903031320 82 147 0.0 4.0 0.00 0.00 0.00 62 1016.4
20260903030816 82 185 0.0 2.0 0.00 0.00 0.00 61 1016.4
20260903030316 82 125 0.0 2.0 0.00 0.00 0.00 62 1016.4
20260903025831 82 125 0.0 2.0 0.00 0.00 0.00 61 1016.4
20260903025326 83 199 0.0 2.0 0.00 0.00 0.00 61 1016.3
20260903024820 83 199 0.0 2.0 0.00 0.00 0.00 61 1016.4
20260903024337 83 199 0.0 1.0 0.00 0.00 0.00 61 1016.3
20260903023812 83 199 0.0 1.0 0.00 0.00 0.00 61 1016.2
20260903023348 83 199 0.0 2.0 0.00 0.00 0.00 60 1016.2
20260903022823 83 199 0.0 2.0 0.00 0.00 0.00 60 1016.1
20260903022338 82 199 0.0 2.0 0.00 0.00 0.00 61 1016.0
20260903021814 82 199 0.0 2.0 0.00 0.00 0.00 63 1016.1
20260903021314 80 199 0.0 1.0 0.00 0.00 0.00 65 1016.0
20260903020809 80 142 0.0 0.0 0.00 0.00 0.00 66 1015.9
20260903020325 80 142 0.0 0.0 0.00 0.00 0.00 67 1015.8
20260903015822 80 142 0.0 0.0 0.00 0.00 0.00 66 1015.8
20260903015318 79 142 0.0 2.0 0.00 0.00 0.00 68 1015.8
20260903014815 80 142 0.0 2.0 0.00 0.00 0.00 68 1015.7
20260903014311 80 142 0.0 0.0 0.00 0.00 0.00 68 1015.6
20260903013849 81 142 0.0 1.0 0.00 0.00 0.00 66 1015.5
20260903013327 82 142 0.0 1.0 0.00 0.00 0.00 63 1015.4
20260903012823 82 142 0.0 2.0 0.00 0.00 0.00 62 1015.4
20260903012320 82 142 0.0 1.0 0.00 0.00 0.00 63 1015.3
20260903011817 82 142 0.0 2.0 0.00 0.00 0.00 63 1015.2
20260903011314 82 142 0.0 2.0 0.00 0.00 0.00 63 1015.2
20260903010810 82 142 0.0 2.0 0.00 0.00 0.00 64 1015.1
20260903010326 83 142 0.0 2.0 0.00 0.00 0.00 63 1015.2
20260903005841 83 142 0.0 0.0 0.00 0.00 0.00 60 1015.1
20260903005321 83 142 0.0 0.0 0.00 0.00 0.00 60 1015.1
20260903004817 84 142 0.0 0.0 0.00 0.00 0.00 60 1015.1
20260903004334 85 142 0.0 2.0 0.00 0.00 0.00 57 1015.1
20260903003849 86 142 0.0 2.0 0.00 0.00 0.00 55 1015.1
20260903003324 87 142 0.0 2.0 0.00 0.00 0.00 54 1015.1
20260903002840 88 142 0.0 2.0 0.00 0.00 0.00 52 1015.1
20260903002316 89 142 0.0 2.0 0.00 0.00 0.00 50 1015.1
20260903001812 89 142 0.0 2.0 0.00 0.00 0.00 49 1015.1
20260903001328 90 142 0.0 2.0 0.00 0.00 0.00 48 1015.1
20260903000809 90 75 0.0 3.0 0.00 0.00 0.00 48 1015.1
20260903000326 91 87 0.0 3.0 0.00 0.00 0.00 47 1015.1
20260902235843 91 86 1.0 3.0 0.00 0.00 0.00 46 1015.1
20260902235318 92 115 1.0 4.0 0.00 0.00 0.00 45 1015.1
20260902234834 93 110 1.0 4.0 0.00 0.00 0.00 44 1015.1
20260902234327 93 134 0.0 2.0 0.00 0.00 0.00 45 1015.1
20260902233824 93 134 1.0 3.0 0.00 0.00 0.00 43 1015.2
20260902233320 94 103 1.0 3.0 0.00 0.00 0.00 43 1015.2
20260902232816 94 98 1.0 3.0 0.00 0.00 0.00 42 1015.2
20260902232317 94 157 0.0 6.0 0.00 0.00 0.00 42 1015.2
20260902231812 94 123 1.0 6.0 0.00 0.00 0.00 42 1015.2
20260902231309 95 78 1.0 3.0 0.00 0.00 0.00 42 1015.2
20260902230826 95 159 1.0 4.0 0.00 0.00 0.00 41 1015.3
20260902230322 95 96 2.0 4.0 0.00 0.00 0.00 41 1015.4
20260902225817 95 175 2.0 4.0 0.00 0.00 0.00 40 1015.4
20260902225313 95 90 1.0 6.0 0.00 0.00 0.00 40 1015.4
20260902224812 96 122 2.0 6.0 0.00 0.00 0.00 40 1015.4
20260902224328 96 103 2.0 4.0 0.00 0.00 0.00 41 1015.5
20260902223825 96 136 2.0 6.0 0.00 0.00 0.00 40 1015.5
20260902223321 96 153 2.0 7.0 0.00 0.00 0.00 40 1015.5
20260902222837 96 103 2.0 5.0 0.00 0.00 0.00 40 1015.5
20260902222331 96 232 1.0 7.0 0.00 0.00 0.00 39 1015.5
20260902221826 96 148 2.0 5.0 0.00 0.00 0.00 41 1015.5
20260902221323 96 218 2.0 4.0 0.00 0.00 0.00 39 1015.5
20260902220838 96 170 2.0 7.0 0.00 0.00 0.00 40 1015.5
20260902220319 96 157 3.0 7.0 0.00 0.00 0.00 40 1015.5
20260902215815 97 201 3.0 7.0 0.00 0.00 0.00 39 1015.5
20260902215312 96 180 2.0 7.0 0.00 0.00 0.00 39 1015.6
20260902214827 96 238 1.0 7.0 0.00 0.00 0.00 40 1015.6
20260902214323 96 232 3.0 5.0 0.00 0.00 0.00 40 1015.7
20260902213819 97 105 2.0 6.0 0.00 0.00 0.00 40 1015.7
20260902213335 97 164 2.0 5.0 0.00 0.00 0.00 39 1015.7
20260902212814 97 138 2.0 5.0 0.00 0.00 0.00 40 1015.8
20260902212310 97 140 1.0 5.0 0.00 0.00 0.00 40 1015.8
20260902211826 97 92 2.0 6.0 0.00 0.00 0.00 41 1015.9
20260902211322 96 169 2.0 6.0 0.00 0.00 0.00 40 1016.0
20260902210818 96 49 3.0 8.0 0.00 0.00 0.00 40 1016.0
20260902210314 97 103 3.0 10.0 0.00 0.00 0.00 41 1016.1
20260902205809 96 180 4.0 10.0 0.00 0.00 0.00 39 1016.1
20260902205310 97 173 3.0 9.0 0.00 0.00 0.00 43 1016.1
20260902204847 97 90 2.0 4.0 0.00 0.00 0.00 43 1016.2
20260902204342 97 92 2.0 5.0 0.00 0.00 0.00 41 1016.2
20260902203817 96 227 3.0 7.0 0.00 0.00 0.00 40 1016.3
20260902203313 97 199 2.0 7.0 0.00 0.00 0.00 41 1016.4
20260902202809 97 205 3.0 6.0 0.00 0.00 0.00 40 1016.4
20260902202326 96 101 2.0 6.0 0.00 0.00 0.00 40 1016.4
20260902201823 96 87 1.0 7.0 0.00 0.00 0.00 43 1016.5
20260902201319 96 108 3.0 12.0 0.00 0.00 0.00 43 1016.7
20260902200820 97 119 3.0 12.0 0.00 0.00 0.00 44 1016.7